Vertical_Velocity
-3 2 -2 -2 -0 -0 10 -9 -2 4 -1 -2 1 -0 0 1 -1 8 8 -7 11 -14 -7 -5 -1 0 -0 5 3 -2 -1 4 3 5 9 28 23 13 5 11 -4 -2 -3
-2 8 -1 1 5 -2 1 2 12 -1 2 8 6 -0 1 1 11 -2 -4 7 2 -2 -8 -9 4 5 11 -0 1 2 -4 -3 -6 1 -4 3 4 7 4 7 2 -3 -1
-0 6 -0 -3 6 15 1 5 5 5 9 41 9 2 4 10 -17 4 -2 -1 1 -6 -6 7 1 -1 -0 1 -3 2 3 1 -8 -3 9 5 8 -5 56 4 -6 -1 1
-3 1 3 -2 2 2 -2 -3 -3 14 61 6 0 -8 -13 8 5 -6 5 -2 -4 -4 -4 -0 1 -2 -0 2 -4 -1 -3 -5 -2 1 3 7 6 6 1 -5 -4 2 3
-3 0 4 1 -1 -1 18 2 -2 4 9 23 13 -8 28 -7 6 5 -2 -4 -7 -2 -3 2 1 -2 2 1 -3 2 -6 0 10 90 63 8 -5 1 4 -1 -3 0 4
1 2 -4 -1 2 9 3 11 1 -2 51 -13 0 15 -10 12 6 6 2 1 2 4 4 1 4 -2 -1 -4 -6 -2 -9 -6 2 7 -5 -4 12 7 -6 5 -1 1 -3
8 0 7 7 6 11 3 10 7 5 1 22 21 7 -1 16 5 0 3 0 4 0 2 -2 0 -1 -2 -0 -4 -1 -7 -3 4 4 -1 11 2 11 3 4 4 3 28
-1 11 3 9 9 8 6 7 -6 8 10 10 8 10 14 4 7 3 -1 1 -1 3 1 1 5 -1 -1 -3 -0 -6 -4 -5 -1 -4 1 21 13 8 6 -3 4 -4 5
-3 -2 5 4 0 -0 1 3 0 5 2 0 1 0 9 7 -4 -3 1 1 -1 -2 6 4 8 2 -6 -1 -7 -1 -2 6 -2 -5 -7 2 5 0 -8 -4 -2 -1 -5
2 0 -1 -5 -2 3 3 -0 3 -1 -1 -4 -3 -4 -7 3 1 -2 -4 -5 -8 -4 -2 1 -1 1 -2 -7 -2 -5 8 -1 -10 -9 -1 -0 -5 -1 3 8 2 -0 1
0 1 1 2 2 1 3 3 2 5 1 -0 -2 -1 -3 -3 6 6 0 -3 -1 -2 -4 -4 -5 -3 5 -6 1 -4 3 -3 -3 -4 -4 -2 -0 -3 7 5 5 15 2
1 1 1 3 1 1 -1 -1 -1 -0 1 1 1 -2 3 -1 1 -5 3 -0 1 -3 -3 -3 -8 -2 3 -5 2 -2 1 8 3 -5 -2 2 -3 2 5 -3 3 2 -4
-1 -1 1 2 1 -0 1 2 2 3 0 2 6 3 0 -4 1 -1 2 2 1 2 6 5 6 2 -2 -1 -4 3 1 -1 -6 -3 6 -0 1 -2 -9 -9 -5 19 9
-0 3 4 3 1 -2 0 -0 -0 -0 -3 -1 0 -2 -1 -2 2 -0 4 -0 -1 2 8 4 2 -1 -1 0 -0 1 2 0 2 4 6 1 -2 -7 -5 -8 -5 3 2
1 -1 -2 -3 -4 -5 -1 1 -2 -2 -0 -3 -5 -1 2 -0 -1 -1 -1 -1 -1 -2 -3 1 1 0 2 -1 1 -2 -3 2 3 4 5 0 2 -2 -5 -4 1 -1 -2
-1 -1 -0 -1 -0 -0 -0 -5 -4 1 1 0 -3 -4 -3 -4 -1 -2 -1 -0 1 -0 -0 -0 -2 -0 -4 -4 -4 -1 0 -2 -2 1 2 3 3 2 3 -1 1 -4 -5
-1 -0 1 2 1 -3 -5 -2 -5 -9 -5 -4 -3 -4 -0 0 -0 -3 -6 -6 -4 -2 -1 -0 -4 1 4 -1 -0 -2 -1 -5 -2 -3 -1 3 4 3 5 6 3 -2 17
-2 -1 -0 -1 -2 -2 -5 -5 -2 -3 -1 -3 -8 -7 -2 -2 -1 -2 -0 2 -2 -6 -1 -1 -2 -3 1 3 -1 3 0 0 -5 -1 -4 -2 -0 2 2 6 3 -1 -4
-1 -0 -2 -2 -2 -1 -0 -2 -8 -5 -3 -3 2 -1 -2 -3 -2 -1 -3 -3 -5 -4 -7 -10 -10 -7 -7 -3 -3 -4 2 3 -1 -2 -3 -2 -3 -3 1 2 4 1 4
-2 -2 -2 -3 -3 -4 -4 -3 -5 -7 -6 -3 -2 -1 -1 -1 -3 -7 -6 -3 -4 -3 -4 -7 -3 -4 -6 -2 -2 -3 -4 -2 -1 -1 3 -0 2 -4 -2 0 0 5 1
-0 -1 -1 -1 -1 -0 0 -1 -2 -3 -3 -4 -3 -3 -3 -3 -2 -2 -1 -1 -2 -2 -4 -1 -1 -4 -1 -1 1 1 -1 -1 3 1 -3 -2 0 4 -2 -1 1 3 2
-0 -1 -1 -1 -1 -2 -2 -2 -2 -2 -2 -2 -4 -2 -2 -1 -1 0 -0 -1 -2 -1 -2 -3 -3 -6 -6 -2 1 0 -3 -0 3 1 0 -1 -1 -2 -0 1 1 1 5
-1 -1 -2 -1 -1 -1 -2 -2 -2 -2 -3 -2 -2 -4 -3 -2 -2 -1 -1 -1 -2 -3 -4 -5 -5 -4 -3 -2 -2 -1 1 2 1 0 1 1 -0 1 4 4 3 -2 4
-2 -2 -1 -0 -0 -2 -1 -1 -1 -1 -2 -3 -2 -3 -3 -3 -4 -3 -3 -3 -4 -4 -4 -4 -5 -4 -4 -3 -2 -0 1 2 3 3 3 -4 2 2 -1 7 2 0 0
0 -1 -1 -1 -0 -1 -0 -1 -0 -1 -1 -2 -2 -2 -2 -2 -2 -2 -2 -4 -4 -3 -2 -2 -2 -3 -4 -4 -2 -2 -1 1 3 1 2 4 2 2 1 -1 6 1 -1
-1 -1 -0 -0 0 0 1 -0 0 -1 -0 0 -0 -0 -0 -2 -1 -1 -2 -2 -2 -2 -1 -2 -2 -2 -3 -1 0 -2 -2 -0 4 6 4 2 6 5 1 0 3 4 2
Height
5554 5553 5549 5547 5548 5551 5560 5565 5578 5590 5598 5605 5610 5617 5621 5626 5628 5630 5632 5633 5641 5647 5652 5648 5650 5652 5653 5658 5662 5666 5669 5673 5678 5682 5687 5681 5689 5695 5701 5703 5703 5706 5707
5543 5541 5536 5532 5532 5537 5542 5548 5559 5570 5579 5589 5593 5602 5607 5611 5616 5619 5624 5628 5633 5631 5636 5637 5641 5644 5645 5647 5650 5654 5658 5662 5668 5676 5678 5678 5680 5675 5689 5692 5695 5697 5699
5533 5529 5525 5523 5524 5526 5530 5536 5544 5553 5561 5572 5578 5586 5593 5598 5602 5611 5613 5616 5619 5621 5626 5630 5632 5634 5636 5640 5642 5646 5649 5654 5660 5665 5670 5669 5671 5677 5679 5682 5685 5687 5690
5523 5520 5517 5516 5518 5521 5523 5526 5533 5539 5537 5552 5564 5574 5579 5586 5593 5597 5604 5606 5610 5612 5617 5621 5624 5625 5626 5629 5633 5638 5641 5646 5650 5652 5654 5658 5661 5667 5671 5673 5675 5677 5679
5515 5513 5509 5509 5510 5515 5517 5522 5527 5528 5532 5537 5551 5562 5562 5577 5582 5587 5591 5594 5599 5602 5606 5609 5612 5614 5616 5619 5621 5626 5631 5631 5631 5628 5626 5645 5649 5654 5659 5663 5664 5666 5668
5511 5508 5504 5502 5503 5508 5513 5517 5519 5523 5527 5534 5542 5550 5558 5567 5571 5577 5580 5584 5588 5592 5595 5598 5600 5601 5604 5608 5609 5613 5618 5623 5623 5623 5630 5634 5635 5642 5644 5650 5652 5655 5658
5510 5506 5503 5501 5502 5507 5509 5512 5514 5517 5521 5527 5533 5536 5546 5553 5559 5566 5569 5573 5577 5580 5585 5587 5588 5589 5592 5596 5600 5602 5606 5609 5612 5615 5617 5621 5627 5630 5632 5636 5639 5645 5645
5509 5506 5503 5500 5502 5504 5505 5508 5509 5509 5514 5517 5521 5526 5529 5539 5547 5554 5559 5562 5566 5570 5574 5576 5578 5579 5581 5583 5586 5589 5592 5595 5599 5600 5605 5613 5614 5616 5619 5623 5626 5630 5633
5509 5506 5504 5501 5500 5500 5502 5503 5506 5508 5509 5511 5515 5519 5524 5530 5537 5542 5546 5552 5555 5559 5563 5565 5567 5568 5570 5573 5575 5576 5578 5581 5583 5586 5590 5594 5598 5601 5604 5608 5610 5616 5621
5508 5507 5505 5502 5499 5498 5499 5499 5500 5503 5503 5506 5511 5517 5521 5523 5529 5533 5536 5542 5547 5551 5553 5555 5557 5559 5561 5563 5564 5566 5567 5568 5570 5573 5576 5579 5583 5586 5591 5593 5598 5601 5606
5506 5504 5503 5502 5501 5500 5498 5497 5498 5498 5500 5502 5505 5508 5510 5515 5519 5522 5527 5531 5535 5539 5542 5545 5546 5548 5551 5553 5554 5555 5556 5559 5561 5561 5563 5567 5571 5575 5578 5581 5585 5587 5593
5503 5502 5500 5499 5498 5497 5497 5497 5497 5497 5498 5499 5499 5500 5502 5505 5508 5511 5516 5520 5523 5527 5529 5533 5534 5535 5538 5540 5542 5544 5545 5548 5551 5550 5550 5553 5557 5561 5568 5569 5573 5577 5580
5498 5496 5495 5494 5493 5493 5493 5492 5492 5492 5493 5493 5494 5495 5496 5497 5499 5501 5504 5508 5512 5514 5517 5518 5521 5523 5525 5527 5530 5532 5534 5537 5539 5539 5539 5540 5542 5545 5549 5554 5560 5563 5564
5494 5492 5489 5488 5487 5486 5486 5486 5485 5485 5485 5486 5486 5487 5488 5488 5489 5492 5494 5495 5498 5500 5503 5505 5507 5509 5511 5513 5516 5518 5522 5524 5526 5527 5528 5530 5531 5530 5533 5539 5543 5547 5550
5489 5487 5485 5483 5480 5478 5477 5476 5475 5474 5475 5475 5475 5475 5476 5476 5478 5479 5480 5482 5484 5486 5489 5490 5493 5495 5497 5499 5502 5504 5506 5509 5513 5515 5518 5520 5520 5521 5521 5522 5526 5532 5535
5484 5481 5478 5475 5472 5471 5469 5468 5466 5465 5464 5463 5463 5463 5463 5463 5463 5464 5464 5466 5467 5470 5471 5473 5476 5479 5481 5484 5486 5489 5491 5493 5497 5500 5504 5505 5506 5508 5510 5511 5512 5515 5519
5478 5474 5471 5468 5465 5462 5459 5456 5453 5450 5449 5449 5448 5447 5448 5449 5449 5448 5448 5449 5450 5451 5452 5453 5456 5459 5462 5464 5467 5471 5474 5477 5480 5483 5487 5490 5492 5493 5495 5498 5501 5501 5507
5471 5468 5466 5462 5459 5455 5451 5447 5443 5440 5436 5434 5433 5431 5431 5431 5431 5431 5431 5431 5432 5431 5432 5433 5435 5436 5439 5441 5444 5448 5452 5457 5461 5465 5469 5474 5478 5480 5482 5484 5488 5490 5491
5462 5460 5457 5454 5451 5448 5444 5440 5436 5431 5428 5425 5422 5420 5418 5415 5414 5413 5414 5414 5415 5415 5416 5416 5415 5416 5417 5416 5417 5421 5426 5431 5436 5443 5448 5454 5460 5464 5468 5471 5474 5477 5479
5451 5449 5446 5444 5441 5438 5435 5431 5427 5424 5420 5416 5413 5411 5408 5404 5401 5399 5397 5396 5397 5398 5400 5399 5399 5399 5399 5399 5398 5401 5404 5406 5410 5417 5422 5430 5438 5446 5451 5455 5457 5462 5465
5439 5436 5434 5431 5429 5426 5424 5421 5418 5415 5411 5407 5403 5399 5396 5394 5391 5386 5383 5382 5382 5383 5383 5383 5382 5382 5381 5379 5380 5384 5387 5388 5391 5394 5398 5405 5413 5422 5431 5437 5440 5445 5448
5422 5420 5418 5415 5413 5411 5409 5407 5405 5402 5399 5396 5392 5388 5384 5381 5378 5374 5371 5370 5369 5369 5368 5367 5365 5365 5363 5363 5365 5366 5368 5370 5374 5377 5381 5384 5389 5397 5407 5415 5422 5427 5431
5404 5401 5399 5397 5395 5394 5392 5391 5390 5388 5386 5383 5380 5376 5373 5369 5366 5363 5360 5357 5355 5354 5352 5351 5349 5347 5347 5348 5348 5348 5350 5352 5356 5359 5364 5368 5371 5375 5383 5392 5400 5407 5412
5385 5382 5380 5378 5377 5376 5374 5374 5373 5372 5371 5369 5366 5363 5361 5357 5354 5351 5348 5346 5343 5341 5339 5337 5335 5333 5332 5331 5330 5329 5329 5332 5337 5343 5349 5352 5356 5360 5364 5370 5379 5387 5394
5364 5362 5360 5359 5357 5356 5356 5355 5355 5355 5354 5354 5352 5350 5348 5346 5344 5341 5338 5335 5333 5331 5329 5326 5323 5319 5316 5313 5311 5310 5310 5313 5319 5326 5332 5338 5342 5346 5350 5355 5360 5367 5376
5343 5340 5339 5338 5338 5337 5337 5337 5337 5337 5337 5337 5337 5336 5335 5334 5332 5330 5328 5326 5325 5323 5320 5317 5313 5308 5304 5301 5299 5299 5299 5301 5305 5311 5318 5325 5329 5333 5339 5343 5346 5352 5360